CHH7864 ZSSS-ZGGG

Flight info

Callsign CHH7864
Flight time N/A
Altitude 34100
Route K0898S1040 NXD61D NXD W131 AKDIM A470 DUBGO W134 ELNEX A599 PLT W19 OLPAB OLPAB8
Aircraft A333/H-SDE3GHIJ2J3J5M1RVWXY/LB2D1

Departure

Time 2026-05-04 05:48
Airport Shanghai Hongqiao International Airport (ZSSS)

Arrival

Time N/A
Airport Guangzhou Baiyun International Airport (ZGGG)
Time Latitude Longitude Altitude Speed Heading
2026-05-04 05:10 31.19827 121.34194 23 ft 0 kts 177°
2026-05-04 05:36 31.19830 121.34194 50 ft 3 kts 177°
2026-05-04 05:36 31.19856 121.34193 24 ft 4 kts 177°
2026-05-04 05:36 31.19881 121.34191 25 ft 3 kts 178°
2026-05-04 05:37 31.19904 121.34196 28 ft 4 kts 227°
2026-05-04 05:37 31.19912 121.34221 28 ft 4 kts 270°
2026-05-04 05:37 31.19912 121.34239 28 ft 1 kts 268°
2026-05-04 05:38 31.19912 121.34241 28 ft 0 kts 268°
2026-05-04 05:40 31.19912 121.34228 27 ft 4 kts 268°
2026-05-04 05:41 31.19911 121.34182 26 ft 7 kts 268°
2026-05-04 05:41 31.19908 121.34110 26 ft 10 kts 267°
2026-05-04 05:41 31.19905 121.34022 25 ft 11 kts 271°
2026-05-04 05:41 31.19954 121.33961 25 ft 12 kts 347°
2026-05-04 05:42 31.20044 121.33954 27 ft 14 kts 358°
2026-05-04 05:42 31.20147 121.33948 24 ft 16 kts 357°
2026-05-04 05:42 31.20249 121.33943 24 ft 15 kts 357°
2026-05-04 05:42 31.20322 121.33939 24 ft 17 kts 357°
2026-05-04 05:43 31.20488 121.33929 25 ft 19 kts 357°
2026-05-04 05:43 31.20601 121.33927 25 ft 16 kts 359°
2026-05-04 05:43 31.20659 121.33899 24 ft 13 kts 304°
2026-05-04 05:45 31.21129 121.33808 24 ft 16 kts 351°
2026-05-04 05:45 31.21206 121.33751 27 ft 13 kts 304°
2026-05-04 05:47 31.21054 121.33561 24 ft 27 kts 177°
2026-05-04 05:47 31.20610 121.33585 25 ft 99 kts 177°
2026-05-04 05:47 31.19732 121.33633 25 ft 158 kts 178°
2026-05-04 05:48 31.18553 121.33682 623 ft 170 kts 180°
2026-05-04 05:48 31.17387 121.33739 1598 ft 165 kts 180°
2026-05-04 05:48 31.16261 121.33802 2454 ft 162 kts 181°
2026-05-04 05:48 31.15126 121.33839 3200 ft 165 kts 181°
2026-05-04 05:49 31.13890 121.33854 3607 ft 194 kts 182°
2026-05-04 05:49 31.12401 121.33878 3932 ft 232 kts 181°
2026-05-04 05:49 31.10691 121.33910 4425 ft 257 kts 181°
2026-05-04 05:49 31.08841 121.33959 4816 ft 271 kts 180°
2026-05-04 05:51 31.05133 121.22763 4918 ft 259 kts 283°
2026-05-04 05:51 31.05530 121.20701 5320 ft 263 kts 283°
2026-05-04 05:52 31.05922 121.18608 6231 ft 264 kts 284°
2026-05-04 05:52 31.06309 121.16525 7317 ft 262 kts 285°
2026-05-04 05:52 31.06693 121.14433 8303 ft 265 kts 282°
2026-05-04 05:52 31.06828 121.12262 9262 ft 273 kts 267°
2026-05-04 05:53 31.06458 121.10070 10217 ft 278 kts 257°
2026-05-04 05:54 31.01903 120.91850 14463 ft 363 kts 256°
2026-05-04 05:55 31.01193 120.88996 15215 ft 367 kts 256°
2026-05-04 05:55 31.00489 120.86167 15944 ft 370 kts 255°
2026-05-04 05:55 30.99766 120.83267 16659 ft 374 kts 255°
2026-05-04 05:55 30.99035 120.80334 17363 ft 378 kts 255°
2026-05-04 05:56 30.98298 120.77379 18059 ft 382 kts 255°
2026-05-04 05:56 30.97553 120.74399 18704 ft 385 kts 255°
2026-05-04 05:56 30.96806 120.71410 19430 ft 383 kts 255°
2026-05-04 05:56 30.96062 120.68439 20214 ft 381 kts 255°
2026-05-04 05:57 30.95322 120.65485 20980 ft 378 kts 255°
2026-05-04 05:57 30.94586 120.62549 21698 ft 377 kts 255°
2026-05-04 05:57 30.93848 120.59609 22415 ft 376 kts 255°
2026-05-04 05:57 30.93113 120.56683 23106 ft 376 kts 255°
2026-05-04 05:58 30.92378 120.53764 23763 ft 376 kts 256°
2026-05-04 05:58 30.91643 120.50841 24246 ft 377 kts 255°
2026-05-04 05:58 30.90819 120.47925 24700 ft 380 kts 251°
2026-05-04 05:58 30.89678 120.45130 25143 ft 385 kts 243°
2026-05-04 05:59 30.88165 120.42577 25630 ft 390 kts 234°
2026-05-04 05:59 30.86266 120.40285 26014 ft 399 kts 226°
2026-05-04 05:59 30.84090 120.38235 26507 ft 402 kts 223°
2026-05-04 05:59 30.81826 120.36317 27103 ft 402 kts 221°
2026-05-04 06:00 30.79526 120.34460 27604 ft 403 kts 220°
2026-05-04 06:00 30.77208 120.32616 28084 ft 404 kts 220°
2026-05-04 06:00 30.74886 120.30764 28544 ft 406 kts 220°
2026-05-04 06:00 30.72559 120.28892 28997 ft 407 kts 221°
2026-05-04 06:01 30.70238 120.27008 29446 ft 408 kts 221°
2026-05-04 06:01 30.67909 120.25105 29882 ft 409 kts 221°
2026-05-04 06:03 30.51238 120.11459 32671 ft 412 kts 221°
2026-05-04 06:03 30.48908 120.09559 33345 ft 405 kts 221°
2026-05-04 06:05 30.32172 119.97576 34205 ft 405 kts 217°
2026-05-04 06:05 30.27271 119.94329 34205 ft 406 kts 217°
2026-05-04 06:06 30.22374 119.91078 34203 ft 405 kts 217°
2026-05-04 06:06 30.17470 119.87822 34206 ft 406 kts 217°
2026-05-04 06:07 30.12599 119.84594 34207 ft 406 kts 217°
2026-05-04 06:07 30.07708 119.81346 34216 ft 405 kts 217°
2026-05-04 06:08 30.02816 119.78090 34203 ft 406 kts 217°
2026-05-04 06:08 29.97920 119.74805 34203 ft 407 kts 217°
2026-05-04 06:09 29.93024 119.71515 34201 ft 407 kts 217°
2026-05-04 06:11 29.74087 119.57559 34212 ft 403 kts 220°
2026-05-04 06:13 29.57053 119.41293 34218 ft 396 kts 233°
2026-05-04 06:14 29.44195 119.24850 34237 ft 395 kts 233°
2026-05-04 06:15 29.40529 119.20201 34212 ft 395 kts 233°
2026-05-04 06:15 29.36823 119.15510 34217 ft 394 kts 233°
2026-05-04 06:16 29.33168 119.10884 34319 ft 390 kts 232°
2026-05-04 06:16 29.31337 119.08595 34520 ft 391 kts 233°
2026-05-04 06:16 29.29505 119.06281 34404 ft 393 kts 233°
2026-05-04 06:17 29.27673 119.03960 34230 ft 393 kts 233°
2026-05-04 06:17 29.25835 119.01632 34218 ft 394 kts 233°
2026-05-04 06:17 29.22150 118.96975 34172 ft 394 kts 233°
2026-05-04 06:18 29.18466 118.92345 34220 ft 392 kts 233°
2026-05-04 06:20 29.03726 118.73869 34177 ft 393 kts 233°
2026-05-04 06:21 28.94518 118.62374 34203 ft 391 kts 233°
2026-05-04 06:22 28.90863 118.57821 34220 ft 392 kts 233°
2026-05-04 06:25 28.65128 118.25896 34202 ft 390 kts 233°
2026-05-04 06:26 28.61445 118.21347 34199 ft 390 kts 233°
2026-05-04 06:26 28.57774 118.16819 34196 ft 389 kts 233°
2026-05-04 06:27 28.49215 118.06279 34205 ft 389 kts 233°
2026-05-04 06:28 28.44939 118.01026 34196 ft 389 kts 233°
2026-05-04 06:28 28.41856 117.97243 34189 ft 389 kts 233°
2026-05-04 06:29 28.38128 117.92786 34197 ft 389 kts 232°
2026-05-04 06:29 28.33759 117.87644 34199 ft 389 kts 232°
2026-05-04 06:30 28.30614 117.83942 34199 ft 389 kts 232°
2026-05-04 06:30 28.26885 117.79550 34199 ft 389 kts 232°
2026-05-04 06:31 28.23134 117.75132 34197 ft 389 kts 232°
2026-05-04 06:31 28.19377 117.70712 34190 ft 389 kts 232°
2026-05-04 06:33 28.04374 117.53112 34172 ft 389 kts 233°
2026-05-04 06:34 28.00645 117.48736 34335 ft 387 kts 232°
2026-05-04 06:34 27.96894 117.44345 34200 ft 388 kts 232°
2026-05-04 06:36 27.81865 117.26832 34266 ft 385 kts 231°
2026-05-04 06:37 27.79981 117.24675 34444 ft 386 kts 232°
2026-05-04 06:37 27.78108 117.22497 34344 ft 386 kts 232°
2026-05-04 06:37 27.76237 117.20324 34166 ft 384 kts 232°
2026-05-04 06:37 27.74381 117.18158 34176 ft 384 kts 232°
2026-05-04 06:38 27.70630 117.13814 34207 ft 388 kts 232°
2026-05-04 06:40 27.55608 116.96384 34186 ft 386 kts 232°
2026-05-04 06:40 27.51858 116.92048 34192 ft 386 kts 232°
2026-05-04 06:41 27.48138 116.87708 34190 ft 384 kts 232°
2026-05-04 06:41 27.44434 116.83365 34185 ft 385 kts 232°
2026-05-04 06:42 27.40713 116.79006 34186 ft 386 kts 232°
2026-05-04 06:44 27.25867 116.61700 34184 ft 383 kts 232°
2026-05-04 06:44 27.22155 116.57394 34188 ft 383 kts 232°
2026-05-04 06:45 27.18493 116.53046 34193 ft 383 kts 233°
2026-05-04 06:45 27.14898 116.48676 34170 ft 383 kts 233°
2026-05-04 06:46 27.11292 116.44290 34184 ft 382 kts 233°
2026-05-04 06:46 27.07685 116.39917 34183 ft 382 kts 233°
2026-05-04 06:48 26.93226 116.22472 34190 ft 382 kts 233°
2026-05-04 06:50 26.78855 116.05010 34191 ft 381 kts 233°
2026-05-04 06:51 26.75267 116.00647 34188 ft 381 kts 233°
2026-05-04 06:51 26.71669 115.96282 34157 ft 382 kts 233°
2026-05-04 06:52 26.68049 115.91898 34184 ft 384 kts 233°
2026-05-04 06:52 26.64426 115.87513 34182 ft 384 kts 233°
2026-05-04 06:53 26.60801 115.83126 34187 ft 384 kts 232°
2026-05-04 06:53 26.57193 115.78760 34187 ft 384 kts 233°
2026-05-04 06:54 26.53560 115.74375 34182 ft 384 kts 233°
2026-05-04 06:54 26.49931 115.69995 34136 ft 384 kts 232°
2026-05-04 06:55 26.46279 115.65601 34182 ft 386 kts 232°
2026-05-04 06:55 26.42624 115.61205 34181 ft 386 kts 232°
2026-05-04 06:57 26.28013 115.43666 34177 ft 387 kts 232°
2026-05-04 06:58 26.24337 115.39268 34171 ft 389 kts 232°
2026-05-04 06:58 26.20640 115.34845 34173 ft 390 kts 232°
2026-05-04 06:59 26.16942 115.30425 34173 ft 390 kts 232°
2026-05-04 06:59 26.13247 115.26016 34172 ft 389 kts 232°
2026-05-04 07:01 25.98470 115.08417 34173 ft 389 kts 232°
2026-05-04 07:02 25.94766 115.04020 34168 ft 390 kts 232°
2026-05-04 07:02 25.91054 114.99620 34169 ft 390 kts 232°
2026-05-04 07:03 25.87354 114.95221 34166 ft 389 kts 232°
2026-05-04 07:03 25.83554 114.90933 34165 ft 393 kts 227°
2026-05-04 07:04 25.78929 114.87544 34160 ft 408 kts 213°
2026-05-04 07:04 25.76247 114.86399 34163 ft 419 kts 206°
2026-05-04 07:04 25.73451 114.85556 34163 ft 423 kts 204°
2026-05-04 07:05 25.67684 114.84113 34167 ft 426 kts 202°
2026-05-04 07:05 25.61872 114.82745 34165 ft 426 kts 202°
2026-05-04 07:06 25.53180 114.80638 34165 ft 426 kts 202°
2026-05-04 07:07 25.47382 114.79201 34160 ft 427 kts 202°
2026-05-04 07:09 25.24203 114.73471 34168 ft 428 kts 202°
2026-05-04 07:09 25.18375 114.72031 34175 ft 429 kts 202°
2026-05-04 07:10 25.12550 114.70590 34172 ft 429 kts 202°
2026-05-04 07:12 24.89252 114.64878 34174 ft 431 kts 201°
2026-05-04 07:12 24.83394 114.63444 34181 ft 431 kts 201°
2026-05-04 07:13 24.77536 114.62007 34184 ft 431 kts 201°
2026-05-04 07:13 24.71772 114.60490 34178 ft 426 kts 205°
2026-05-04 07:14 24.62219 114.55298 34184 ft 417 kts 216°
2026-05-04 07:14 24.59714 114.53708 34182 ft 416 kts 216°
2026-05-04 07:15 24.53863 114.49965 34181 ft 416 kts 216°
2026-05-04 07:15 24.49695 114.47316 34184 ft 417 kts 216°
2026-05-04 07:16 24.44661 114.44137 34172 ft 419 kts 216°
2026-05-04 07:16 24.39578 114.40939 34178 ft 423 kts 216°
2026-05-04 07:17 24.34453 114.37729 34178 ft 423 kts 216°
2026-05-04 07:17 24.29350 114.34533 34176 ft 422 kts 216°
2026-05-04 07:18 24.24247 114.31336 34177 ft 422 kts 216°
2026-05-04 07:18 24.19145 114.28145 34066 ft 426 kts 216°
2026-05-04 07:19 24.16593 114.26548 33809 ft 429 kts 216°
2026-05-04 07:19 24.13998 114.24927 33556 ft 430 kts 216°
2026-05-04 07:19 24.11475 114.23189 33297 ft 426 kts 221°
2026-05-04 07:19 24.09215 114.21125 33031 ft 421 kts 229°
2026-05-04 07:20 24.07294 114.18728 32792 ft 417 kts 237°
2026-05-04 07:20 24.05740 114.16064 32553 ft 416 kts 243°
2026-05-04 07:20 24.04367 114.13278 32296 ft 417 kts 244°
2026-05-04 07:20 24.03018 114.10458 32064 ft 418 kts 244°
2026-05-04 07:22 23.93473 113.90685 30128 ft 422 kts 243°
2026-05-04 07:22 23.92110 113.87882 29639 ft 414 kts 243°
2026-05-04 07:23 23.90773 113.85133 29187 ft 405 kts 243°
2026-05-04 07:23 23.89463 113.82439 28721 ft 397 kts 243°
2026-05-04 07:23 23.88175 113.79796 28290 ft 390 kts 243°
2026-05-04 07:23 23.86913 113.77201 27844 ft 384 kts 243°
2026-05-04 07:24 23.85677 113.74661 27425 ft 382 kts 244°
2026-05-04 07:24 23.84430 113.72102 26991 ft 380 kts 244°
2026-05-04 07:24 23.83192 113.69561 26526 ft 377 kts 244°
2026-05-04 07:24 23.81963 113.67041 26106 ft 375 kts 244°
2026-05-04 07:25 23.80719 113.64613 25687 ft 375 kts 240°
2026-05-04 07:26 23.65818 113.52839 22445 ft 379 kts 218°
2026-05-04 07:27 23.63589 113.51329 21996 ft 376 kts 218°
2026-05-04 07:27 23.61443 113.49735 21487 ft 369 kts 224°
2026-05-04 07:27 23.59679 113.47770 21013 ft 359 kts 237°
2026-05-04 07:27 23.58451 113.45438 20563 ft 352 kts 248°
2026-05-04 07:28 23.57592 113.42989 20115 ft 349 kts 252°
2026-05-04 07:28 23.56809 113.40525 19678 ft 347 kts 252°
2026-05-04 07:28 23.56023 113.38037 19233 ft 345 kts 252°
2026-05-04 07:28 23.55239 113.35573 18783 ft 343 kts 252°
2026-05-04 07:29 23.54462 113.33122 18344 ft 341 kts 251°
2026-05-04 07:29 23.53686 113.30690 17854 ft 339 kts 251°
2026-05-04 07:29 23.52907 113.28263 17416 ft 338 kts 251°
2026-05-04 07:29 23.52119 113.25863 16999 ft 336 kts 249°
2026-05-04 07:30 23.51052 113.23602 16592 ft 336 kts 237°
2026-05-04 07:30 23.49507 113.21730 16191 ft 338 kts 223°
2026-05-04 07:30 23.47496 113.20378 15772 ft 343 kts 207°
2026-05-04 07:30 23.45196 113.19627 15350 ft 347 kts 197°
2026-05-04 07:31 23.42842 113.19120 14878 ft 346 kts 195°
2026-05-04 07:31 23.40483 113.18648 14391 ft 344 kts 195°